#timestamp,LO_Frequency,Hit 
1504141215.4,286047014.7,N
1504141235.2,286047014.9,N
1504141255.0,286047014.3,N
1504141255.9,286047014.3,N
1504141275.8,286047013.8,N
1504141295.6,286047012.9,N
1504141315.5,286047014.2,N
1504141335.4,286047016.7,N
1504141355.2,286047012.6,N
1504141375.0,286047013.8,N
1504141375.9,286047013.8,P
1504141395.8,286047002.6,N
1504141415.6,286047001.7,N
1504141435.4,286047005.2,N
1504141455.3,286047004.6,N
1504141475.1,286047007.1,N
1504141476.0,286047007.1,N
1504141495.8,286047009.0,N
1504141515.7,286047009.2,N
1504141535.5,286047007.9,N
1504141555.3,286047004.6,N
1504141575.1,286047009.1,N
1504141595.9,286047007.0,N
1504141615.7,286047005.2,N
1504141635.5,286047006.2,N
1504141655.4,286047007.4,N
1504141675.2,286047007.6,N
1504141695.0,286047006.7,N
1504141695.9,286047006.7,N
1504141715.8,286047008.7,P
1504141735.1,286047002.2,N
1504141736.0,286047002.2,N
1504141755.8,286047001.5,N
1504141775.7,286046999.8,N
1504141795.5,286046999.9,N
1504141815.3,286047001.6,N
1504141835.2,286047003.7,N
1504141855.9,286047002.1,N
1504141875.7,286047002.0,N
1504141895.5,286046998.8,N
1504141915.4,286046998.7,N
1504141935.2,286046998.0,N
1504141955.0,286046996.4,N
1504141955.9,286046996.4,N
1504141975.8,286046995.7,N
1504141995.6,286046997.8,N
1504142015.4,286046994.0,N
1504142035.3,286046993.6,N
1504142055.1,286046994.2,N
1504142056.0,286046994.2,N
1504142075.8,286046996.4,N
1504142095.7,286046993.8,N
1504142115.5,286046997.3,N
1504142135.3,286047000.8,N
1504142155.1,286046998.4,N
1504142175.9,286046999.1,N
1504142195.7,286046996.9,N
1504142215.5,286046998.5,N
1504142235.4,286046998.7,N
1504142255.2,286046996.8,N
1504142275.0,286046998.1,N
1504142275.9,286046998.1,N
1504142295.8,286046999.7,N
1504142315.6,286046999.3,N
1504142335.4,286046998.8,N
1504142355.3,286046998.5,N
1504142375.1,286046999.5,N
1504142376.0,286046999.5,N
1504142395.8,286046996.5,N
1504142415.7,286047002.1,N
1504142435.5,286047002.2,N
1504142455.3,286046999.7,N
1504142475.2,286047001.0,N
1504142495.7,286046999.0,N
1504142515.3,286046998.5,N
1504142535.1,286046998.4,N
1504142555.9,286046996.5,N
1504142575.7,286046998.7,N
1504142595.5,286046999.0,N
1504142615.4,286047000.1,N
1504142635.2,286047001.5,N
1504142655.0,286047001.3,N
1504142655.9,286047001.3,N
1504142675.8,286047002.0,N
1504142695.6,286047000.3,N
1504142715.4,286047002.0,N
1504142735.3,286047004.1,N
1504142755.1,286047001.5,N
1504142756.0,286047001.5,N
1504142775.8,286047004.4,N
1504142795.6,286047000.2,N
1504142815.5,286046998.5,N
1504142835.3,286046999.3,N
1504142855.1,286046998.7,N
1504142875.9,286046996.7,N
1504142895.7,286046996.5,N
1504142915.5,286046997.3,N
1504142935.4,286046999.6,N
1504142955.2,286046998.8,N
1504142975.0,286046993.4,P
1504142975.9,286046993.4,N
1504142995.8,286046993.5,N
1504143015.6,286046993.8,N
1504143035.4,286046995.9,N
1504143055.3,286046995.3,N
1504143075.1,286046995.0,N
1504143095.8,286046997.4,N
1504143115.7,286046993.7,P
1504143135.5,286047001.2,N
1504143155.3,286047001.2,N
1504143175.2,286047002.4,N
1504143195.9,286047002.1,N
1504143215.7,286046999.8,N
1504143235.6,286047002.5,N
1504143255.4,286047001.1,N
1504143275.2,286046999.9,N
1504143295.1,286047000.8,N
1504143296.0,286047000.8,N
1504143315.8,286046999.3,N
1504143335.6,286046996.7,N
1504143355.4,286046998.3,N
1504143375.3,286046996.9,N
1504143395.1,286047001.0,N
1504143415.8,286047002.7,N
1504143435.7,286046999.9,N
1504143455.5,286047002.3,N
1504143475.3,286047000.9,N
1504143495.2,286047000.0,N
1504143515.9,286046998.5,N
1504143535.7,286047000.1,N
1504143555.6,286047002.0,N
1504143575.4,286047001.1,N
1504143595.2,286047000.8,N
1504143615.0,286047002.0,N
1504143616.0,286047002.0,N
1504143635.8,286046998.1,N
1504143655.6,286047000.7,N
1504143675.4,286046999.8,N
1504143695.3,286047004.1,N
1504143715.1,286047006.3,P
1504143735.9,286047007.3,N
1504143755.7,286047009.8,P
1504143775.5,286047010.5,P
1504143795.4,286047002.5,N
1504143815.2,286047000.3,N
1504143835.0,286046999.4,N
1504143835.9,286046999.4,N
1504143855.8,286046996.8,N
1504143875.6,286046997.4,N
1504143895.4,286046997.1,N
1504143915.2,286046996.1,N
1504143935.1,286046997.9,N
1504143936.0,286046997.9,N
1504143955.8,286046999.6,N
1504143975.6,286046999.0,N
1504143995.5,286046997.2,N
1504144015.3,286046998.0,N
1504144035.1,286046997.4,N
1504144055.9,286046997.3,N
1504144075.7,286046995.1,N
1504144095.5,286046996.6,N
1504144115.4,286046998.0,N
1504144135.2,286046995.6,N
1504144155.0,286046993.8,N
1504144155.9,286046993.8,N
1504144175.8,286046992.1,N
1504144195.6,286046994.8,N
1504144215.4,286046994.5,N
1504144235.2,286046994.4,N
1504144255.1,286046990.3,N
1504144256.0,286046990.3,N
1504144275.8,286046990.8,N
1504144295.6,286046993.2,N
1504144315.5,286046993.2,N
1504144335.3,286046993.6,N
1504144355.1,286046992.2,N
1504144375.9,286046990.9,P
1504144395.7,286046995.8,N
1504144415.5,286046997.3,N
1504144435.4,286047000.2,N
1504144455.2,286047000.6,N
1504144475.0,286046997.0,N
1504144475.9,286046997.0,N
1504144495.8,286046999.0,N
1504144515.6,286046996.6,N
1504144535.4,286047001.0,N
1504144555.3,286047001.7,N
1504144575.1,286047000.4,N
1504144576.0,286047000.4,N
1504144595.8,286047002.7,N
1504144615.7,286046999.7,N
1504144635.5,286046999.5,N
1504144655.3,286046999.1,N
1504144675.1,286046998.6,N
1504144695.9,286047000.4,N
1504144715.7,286046998.9,N
1504144735.5,286047001.1,N
1504144755.4,286047001.9,N
1504144775.2,286047002.0,N
1504144795.0,286047002.8,N
1504144795.9,286047002.8,N
